Location: Allaines
(49.9632°N, 2.9458°E)
Time: 11:47:52
(UTC+00:00)

ISS - Pass Details

Date: 01 July 2021
Orbit: 419 x 421 km, 51.6° (Epoch: 31 July)

Event Time Altitude Azimuth Distance (km) Brightness Sun altitude
Exits shadow 02:15:00 14° 188° (S) 1,295 -1.8 -10.4°
Maximum altitude 02:17:02 22° 143° (SE) 965 -2.1 -10.2°
Drops below altitude 10° 02:19:43 10° 90° (E) 1,503 -0.5 -10.0°
Sets 02:22:06 0° 75° (ENE) 2,370 0.9 -9.7°
